sat.trackr.live / text

‹ back to catalog

STARLINK-34455

NORAD 65497 · 2025-198F

PAYLOAD ACTIVE UNKNOWN

§ Identity

Operator
Country
US
Launch date
2025-09-05
Launch site
AFETR
Launch vehicle
Mass (kg)
RCS (m²)

Purposes: comms

External: N2YO · Heavens-Above · Gunter

§ Orbital elements

Epoch: 2026-09-20T22:10:17.291136Z

Period
93.85 min
Inclination
53.1653°
Eccentricity
0.0001034
Mean motion
15.34412007 rev/d
Perigee alt
462.0 km
Apogee alt
463.4 km
Semi-major
6,840.8 km
B*
6.8122e-4
RAAN
79.7352°
Arg perigee
39.5664°
Mean anomaly
320.5414°
Rev number
5,857

§ Raw data

STARLINK-344551 65497U 25198F   26263.92381124  .00022718  00000+0  68122-3 0  99962 65497  53.1653  79.7352 0001034  39.5664 320.5414 15.34412007 58571

JSON: /api/v1/satellites/65497 · /tle

For live sub-satellite position, see the globe view (requires WebGL).

§ Visibility from observer

Set your observer location to see the next 7 days of passes ≥ 10°. The values pass through the URL so the page stays shareable.

No JS? Fill the form by hand. The geolocation button needs JavaScript.